Location: Gesvres
(49.0440°N, 2.8518°E)
Time: 12:41:09
(UTC+00:00)

Cosmos 1544 Rocket - Pass Details

Date: 28 January 2023
Orbit: 604 x 628 km, 82.5° (Epoch: 22 March)

Event Time Altitude Azimuth Distance (km) Brightness Sun altitude
Rises 17:19:01 0° 355° (N) 2,876 6.8 -6.9°
Reaches altitude 10° 17:21:20 10° 2° (N) 1,965 5.9 -7.3°
Maximum altitude 17:25:29 43° 75° (ENE) 854 3.8 -7.9°
Drops below altitude 10° 17:29:36 10° 147° (SSE) 1,949 6.0 -8.5°
Sets 17:31:54 0° 155° (SSE) 2,849 6.9 -8.9°
